SCP
0 0 0 0 0 0 0 0 0 0 3 3 2 2 2 1 1 1 0 0 0 0 0 0 0 0 0 0 0 0 0 0 0 0 0 0 0 0 0 0 0 0 0
0 0 0 0 0 0 0 0 0 0 1 4 3 2 2 1 2 1 0 0 0 0 0 0 1 0 1 0 1 0 0 0 0 0 0 0 0 0 0 0 0 0 0
0 0 0 0 0 0 0 0 0 0 0 3 5 3 1 1 1 2 1 0 0 0 0 1 1 1 1 1 0 0 0 0 0 0 0 0 0 0 0 0 0 0 0
0 0 0 0 0 0 0 0 0 0 0 1 4 2 2 1 1 1 1 0 0 0 0 1 1 1 1 1 0 0 0 0 0 0 0 0 0 0 0 0 0 0 0
0 0 0 0 0 0 0 0 0 1 0 1 3 3 2 2 1 1 2 1 1 0 1 1 1 1 1 1 1 1 0 0 0 0 0 0 0 0 0 0 0 0 0
0 0 0 0 0 0 0 0 0 0 1 2 3 3 2 1 1 1 1 1 0 0 1 1 2 1 1 0 1 1 0 0 0 0 0 0 0 0 0 0 0 0 0
0 0 0 0 0 0 0 0 0 0 -0 1 2 3 3 2 1 1 2 0 0 0 1 2 2 1 1 1 1 0 0 0 0 0 0 0 0 0 0 0 0 0 0
0 0 0 0 0 0 0 0 -0 0 0 0 1 2 4 3 2 1 1 1 0 0 1 2 2 1 1 1 0 0 0 0 0 0 0 0 0 0 0 0 0 0 0
0 0 0 0 0 0 0 0 0 0 -0 0 1 1 2 2 1 1 1 1 0 0 1 1 1 1 0 0 0 0 0 0 0 0 0 0 0 0 0 0 0 0 0
0 0 0 0 0 0 0 0 0 0 0 0 1 1 1 1 1 1 1 1 1 -0 0 1 1 0 0 0 0 0 0 0 0 0 0 0 0 0 0 0 0 0 0
0 0 0 0 0 0 0 0 0 -0 0 0 -0 1 1 1 1 1 1 1 0 1 1 0 1 0 0 0 0 0 0 0 0 0 0 0 0 0 0 0 0 0 0
0 0 0 0 0 0 0 0 0 0 0 -0 -0 -0 0 1 1 1 0 0 0 1 0 0 0 0 0 0 0 0 0 0 0 0 0 0 0 0 0 0 0 0 0
0 0 0 0 0 0 0 0 0 0 0 0 -1 -0 -0 1 1 1 0 0 0 1 0 0 0 0 0 0 0 0 0 0 0 0 0 0 0 0 0 0 0 0 0
0 0 0 0 0 0 0 0 0 0 0 -0 -1 -1 -0 0 1 1 0 0 0 1 0 0 0 0 0 0 0 0 0 0 0 0 0 0 0 0 0 0 0 0 0
0 0 0 0 0 0 0 0 -0 0 0 0 -0 -0 -0 0 0 0 1 0 0 1 0 0 0 0 0 0 0 0 0 0 0 0 0 0 0 0 0 0 0 0 0
0 0 0 0 0 0 0 0 0 0 -0 0 -0 -0 -0 0 0 0 0 1 0 1 0 0 0 0 0 0 0 0 0 0 0 0 0 0 0 0 0 0 0 0 0
0 0 0 0 0 0 0 0 -0 -0 -0 -0 0 0 0 0 0 0 1 1 1 0 0 0 0 0 0 0 0 0 0 0 0 0 0 0 0 0 0 0 0 0 0
0 0 0 0 0 0 0 0 -0 -0 -0 -0 0 0 0 0 0 0 0 1 1 0 0 0 0 0 0 0 0 0 0 0 0 0 0 0 0 0 0 0 0 0 0
0 0 0 0 0 0 0 -0 -0 -0 0 -0 0 0 0 0 0 0 0 0 0 0 0 0 0 0 0 0 0 0 0 0 0 0 0 0 0 0 0 0 0 0 0
0 0 0 0 0 0 -0 -0 -0 -0 0 0 -0 0 0 0 0 0 0 1 0 0 0 0 0 0 0 0 0 0 0 0 0 0 0 0 0 0 0 0 0 0 0
0 0 0 0 0 0 -0 -0 0 0 0 -0 0 0 0 0 0 0 0 1 0 0 0 0 0 0 0 0 0 0 0 0 0 0 0 0 0 0 0 0 0 0 0
0 0 0 0 -0 -0 0 -0 0 0 0 -0 0 0 1 1 1 1 1 0 0 0 0 0 0 0 0 0 0 0 0 0 0 0 0 0 0 0 0 0 0 0 0
0 0 -0 -0 -0 -0 0 -0 0 0 0 0 0 0 1 1 0 1 1 0 0 0 0 0 0 0 0 0 0 0 0 0 0 0 0 0 0 0 0 0 0 0 0
0 -0 -0 -0 -0 -0 0 -0 0 0 0 0 0 0 0 0 0 0 0 0 0 0 0 0 0 0 0 0 0 0 0 0 0 0 0 0 0 0 0 0 0 0 0
0 0 0 0 0 0 0 0 0 0 0 0 0 0 0 0 0 0 0 0 0 0 0 0 0 0 0 0 0 0 0 0 0 0 0 0 0 0 0 0 0 0 0
0 0 0 0 0 0 0 0 0 0 0 0 0 0 0 0 0 0 0 0 0 0 0 0 0 0 0 0 0 0 0 0 0 0 0 0 0 0 0 0 0 0 0
Wind_Speed_500mb
35 31 37 33 35 43 40 48 48 51 63 61 56 69 76 75 81 77 82 76 71 68 68 63 56 53 54 51 48 39 36 28 23 21 28 16 21 18 16 8 3 6 7
32 27 32 28 32 45 46 47 51 52 51 67 69 63 82 82 74 79 85 78 77 66 72 68 60 63 58 57 49 46 41 35 33 30 23 16 21 19 23 17 9 12 14
29 28 23 29 33 27 35 43 51 57 62 67 74 70 69 76 93 74 84 79 78 76 76 76 63 62 65 58 52 49 43 37 40 31 24 14 9 20 20 23 18 18 16
21 28 28 35 30 32 40 51 57 62 66 58 76 73 78 77 91 99 83 86 88 84 84 84 74 65 63 58 53 47 40 42 36 28 35 21 17 12 14 20 21 22 18
15 11 14 15 18 25 33 33 52 68 66 63 74 80 82 79 79 101 91 89 95 75 86 84 74 65 57 64 53 48 46 47 36 24 39 29 18 10 15 13 21 28 18
9 17 16 22 29 36 43 39 40 50 70 68 70 73 80 82 81 87 84 107 106 88 93 84 73 62 60 60 54 46 42 48 36 28 23 18 16 18 15 13 7 18 25
19 20 16 11 9 21 44 49 38 30 63 66 67 72 84 79 84 82 88 84 100 95 92 81 78 70 69 65 53 44 42 43 46 35 31 28 21 19 22 18 14 17 32
31 32 25 7 13 14 15 36 59 37 25 59 78 70 71 74 80 79 82 75 84 96 82 78 84 76 67 62 54 47 41 44 46 42 40 38 34 29 28 25 20 16 29
31 33 29 35 32 31 28 33 38 51 54 61 57 73 72 69 74 74 70 72 77 87 72 85 84 80 72 62 53 50 46 46 44 43 41 38 35 31 27 23 19 25 23
20 25 31 24 29 38 53 40 49 54 52 55 50 66 74 64 66 73 71 82 72 65 75 84 87 84 74 61 56 50 43 40 39 42 46 39 31 25 22 19 16 20 19
13 26 13 20 24 35 44 44 50 61 66 60 57 52 67 65 64 72 73 94 89 79 84 86 84 80 72 61 54 47 43 38 38 48 50 42 30 26 22 21 18 15 21
15 16 28 30 36 37 42 63 59 55 59 63 62 48 58 62 63 73 79 93 81 80 74 86 83 77 64 60 50 47 43 40 39 48 52 41 30 26 20 18 15 12 25
16 14 21 27 40 43 50 69 61 58 55 56 55 51 55 58 57 71 89 87 93 85 79 78 72 68 60 58 48 46 41 41 40 42 49 40 36 29 24 21 18 21 23
21 25 28 34 40 44 55 60 64 47 47 55 51 55 49 51 58 71 83 97 85 76 87 81 73 73 64 59 52 48 47 46 42 39 42 40 36 29 28 21 19 24 29
21 26 36 47 39 47 62 56 59 56 48 41 53 54 43 56 53 72 80 82 88 92 94 74 79 66 61 60 61 54 52 48 48 46 42 38 33 28 27 27 27 33 26
19 22 29 33 47 56 58 63 63 61 63 44 52 58 42 55 47 60 78 84 94 82 81 78 61 56 61 63 57 57 54 52 52 51 46 37 30 29 27 24 26 29 26
13 23 40 47 47 51 61 63 68 68 71 59 48 57 39 54 39 60 75 84 84 78 80 74 66 56 60 58 59 57 53 52 51 50 45 41 35 29 30 29 25 25 26
27 41 49 53 52 60 60 71 79 78 76 61 51 52 46 59 71 57 74 83 79 79 77 77 70 57 61 56 62 58 53 49 50 46 41 38 37 33 33 30 27 25 22
43 52 49 54 62 62 69 79 75 60 54 55 56 49 49 54 66 61 62 71 83 87 79 76 70 61 58 58 64 60 56 54 52 48 44 38 38 39 36 30 30 31 29
62 68 54 55 65 74 72 61 65 64 60 56 56 49 51 52 60 46 72 83 81 89 86 75 70 64 62 64 66 66 65 64 60 55 47 38 37 41 35 26 30 33 30
65 45 43 55 72 80 68 60 62 66 59 60 58 54 51 62 70 77 78 84 90 88 91 78 78 71 66 71 76 72 69 68 67 60 54 48 42 43 36 27 29 26 36
50 63 69 73 86 92 71 74 71 65 60 59 60 52 49 54 67 73 81 84 94 89 88 83 86 81 81 79 81 72 65 67 62 59 53 49 50 50 41 32 26 36 35
60 69 75 83 70 68 66 79 68 61 61 59 56 49 50 55 66 70 78 79 83 89 91 90 99 93 90 87 77 68 66 64 59 53 51 48 50 51 46 37 38 37 35
70 83 71 69 78 64 71 81 67 53 54 55 54 44 50 62 61 76 82 88 79 83 83 92 100 102 92 94 81 71 65 62 53 54 51 48 50 49 46 41 49 39 36
84 74 71 69 73 65 66 65 60 53 58 53 53 51 59 75 71 63 77 88 84 93 93 92 100 111 107 100 87 82 78 68 58 55 58 53 54 54 52 57 50 39 34
77 75 73 66 60 56 58 57 46 38 47 46 51 50 72 79 82 73 79 78 80 86 92 108 117 108 108 104 90 76 65 57 58 55 55 52 54 61 64 58 51 40 37
Wind_Direction_500mb
258 262 250 242 261 253 240 241 242 240 249 260 254 231 222 218 218 220 221 226 226 217 212 208 200 205 205 201 202 207 212 196 204 194 186 205 221 234 234 243 228 210 304
241 245 237 251 261 260 248 240 240 237 239 252 259 251 234 222 221 219 226 221 225 222 213 202 205 207 210 209 211 221 208 213 203 193 204 196 205 218 219 215 228 246 254
224 227 238 271 276 269 262 259 250 247 248 259 258 254 250 242 227 221 221 219 226 230 217 201 205 210 212 213 211 209 210 213 200 218 194 193 208 199 197 203 220 240 241
217 233 246 248 249 261 276 279 271 253 252 260 256 248 249 245 234 230 220 230 228 230 220 204 205 208 215 212 210 214 217 211 207 204 211 191 152 172 180 202 218 233 249
209 228 236 242 253 266 274 290 285 265 253 248 256 247 249 249 252 232 227 219 226 223 219 207 208 209 212 209 209 214 218 208 206 208 209 210 222 204 180 177 210 226 228
252 221 242 263 267 270 275 287 312 285 259 243 256 246 248 249 248 243 230 225 214 218 217 211 205 201 204 207 207 208 206 205 203 194 187 186 185 182 167 161 141 191 192
33 33 9 341 356 340 327 287 288 313 266 244 256 247 250 252 256 244 235 213 213 209 212 208 203 201 204 209 210 207 202 206 196 194 185 185 197 188 186 189 168 145 165
23 10 349 12 50 344 328 326 314 276 316 289 259 255 260 258 257 246 235 224 211 209 204 206 202 204 202 205 207 208 211 211 199 194 188 199 213 215 212 225 203 165 174
354 358 333 307 314 324 315 309 291 300 292 284 272 253 257 261 252 244 233 217 204 202 195 208 203 206 206 209 205 209 206 208 203 199 205 210 217 222 214 214 204 181 164
314 329 330 331 327 323 313 282 302 295 298 289 291 261 256 259 250 239 230 197 188 190 206 204 202 202 202 201 205 203 206 200 200 196 200 208 210 213 200 203 196 187 174
271 295 333 331 325 308 304 292 292 291 282 295 288 283 262 258 246 234 224 200 193 190 205 208 205 203 200 199 197 203 201 203 194 190 199 201 201 199 191 198 197 171 185
306 276 277 298 306 299 277 285 290 303 288 285 281 287 267 257 247 226 223 197 186 177 200 208 209 203 201 198 193 197 202 202 195 192 197 197 195 192 188 198 196 176 183
291 294 307 309 304 308 299 282 297 316 288 303 303 302 266 251 243 227 197 191 184 180 197 200 207 209 206 199 194 199 202 199 193 191 192 189 191 194 198 194 177 153 156
323 305 292 301 303 301 298 296 298 306 311 295 300 316 291 251 243 226 195 181 189 187 209 213 212 216 204 196 200 199 200 192 188 186 186 187 194 191 196 193 176 145 134
309 308 300 303 291 291 297 291 293 292 302 322 309 324 286 249 239 228 205 193 196 189 205 202 207 201 198 199 196 194 193 189 182 185 185 188 193 194 193 196 189 176 176
292 300 300 289 296 302 299 292 295 296 303 315 311 315 279 238 239 234 215 193 203 200 202 197 203 203 198 198 197 195 191 187 188 187 185 187 187 185 188 184 180 185 189
279 293 295 294 298 293 293 291 296 299 305 290 304 305 264 250 251 236 210 194 196 195 200 204 202 197 193 191 195 196 193 190 191 189 186 185 187 190 195 191 195 191 194
322 315 301 294 284 290 284 287 293 297 294 277 280 288 273 245 245 229 221 199 194 197 192 188 191 199 194 193 195 194 196 191 190 184 187 188 185 182 192 187 177 168 159
314 310 288 284 289 283 287 292 295 294 277 270 267 283 275 234 242 229 229 212 201 194 196 202 198 197 195 193 196 197 196 189 184 184 183 181 180 173 180 172 163 151 139
316 314 292 288 289 292 303 293 290 293 278 274 265 279 264 247 221 242 227 215 214 210 205 198 201 199 194 194 200 203 198 184 182 181 180 178 178 174 175 161 161 146 130
308 296 296 292 292 298 300 287 286 286 275 271 265 276 268 236 228 223 223 218 210 203 196 202 203 208 213 201 202 205 199 190 183 182 184 183 180 176 173 164 163 150 136
298 296 294 293 293 296 287 287 282 279 273 269 265 271 267 242 224 215 215 216 212 203 202 202 195 194 195 194 199 203 204 194 190 186 186 184 181 178 178 167 158 145 138
297 290 293 301 294 286 284 285 282 275 268 267 271 278 257 239 225 217 206 195 199 193 193 197 190 182 181 189 196 201 198 193 188 186 181 179 175 177 175 166 166 154 152
294 297 299 292 295 290 279 276 281 270 268 265 267 268 244 216 217 201 195 193 191 187 187 180 182 179 189 187 185 186 186 186 181 178 181 176 173 173 172 166 159 159 161
299 299 294 292 294 292 280 278 273 267 258 259 267 264 233 208 207 192 195 196 203 204 208 195 197 190 181 178 180 181 180 177 175 168 170 170 172 171 169 165 162 161 163
302 299 298 295 295 288 280 280 271 255 254 261 265 239 194 197 196 188 186 197 208 207 208 208 200 186 180 177 177 177 177 177 179 176 170 168 169 168 169 169 164 168 176
Wind_Speed_850mb
35 31 37 33 35 43 40 48 48 51 63 61 56 69 76 75 81 77 82 76 71 68 68 63 56 53 54 51 48 39 36 28 23 21 28 16 21 18 16 8 3 6 7
32 27 32 28 32 45 46 47 51 52 51 67 69 63 82 82 74 79 85 78 77 66 72 68 60 63 58 57 49 46 41 35 33 30 23 16 21 19 23 17 9 12 14
29 28 23 29 33 27 35 43 51 57 62 67 74 70 69 76 93 74 84 79 78 76 76 76 63 62 65 58 52 49 43 37 40 31 24 14 9 20 20 23 18 18 16
21 28 28 35 30 32 40 51 57 62 66 58 76 73 78 77 91 99 83 86 88 84 84 84 74 65 63 58 53 47 40 42 36 28 35 21 17 12 14 20 21 22 18
15 11 14 15 18 25 33 33 52 68 66 63 74 80 82 79 79 101 91 89 95 75 86 84 74 65 57 64 53 48 46 47 36 24 39 29 18 10 15 13 21 28 18
9 17 16 22 29 36 43 39 40 50 70 68 70 73 80 82 81 87 84 107 106 88 93 84 73 62 60 60 54 46 42 48 36 28 23 18 16 18 15 13 7 18 25
19 20 16 11 9 21 44 49 38 30 63 66 67 72 84 79 84 82 88 84 100 95 92 81 78 70 69 65 53 44 42 43 46 35 31 28 21 19 22 18 14 17 32
31 32 25 7 13 14 15 36 59 37 25 59 78 70 71 74 80 79 82 75 84 96 82 78 84 76 67 62 54 47 41 44 46 42 40 38 34 29 28 25 20 16 29
31 33 29 35 32 31 28 33 38 51 54 61 57 73 72 69 74 74 70 72 77 87 72 85 84 80 72 62 53 50 46 46 44 43 41 38 35 31 27 23 19 25 23
20 25 31 24 29 38 53 40 49 54 52 55 50 66 74 64 66 73 71 82 72 65 75 84 87 84 74 61 56 50 43 40 39 42 46 39 31 25 22 19 16 20 19
13 26 13 20 24 35 44 44 50 61 66 60 57 52 67 65 64 72 73 94 89 79 84 86 84 80 72 61 54 47 43 38 38 48 50 42 30 26 22 21 18 15 21
15 16 28 30 36 37 42 63 59 55 59 63 62 48 58 62 63 73 79 93 81 80 74 86 83 77 64 60 50 47 43 40 39 48 52 41 30 26 20 18 15 12 25
16 14 21 27 40 43 50 69 61 58 55 56 55 51 55 58 57 71 89 87 93 85 79 78 72 68 60 58 48 46 41 41 40 42 49 40 36 29 24 21 18 21 23
21 25 28 34 40 44 55 60 64 47 47 55 51 55 49 51 58 71 83 97 85 76 87 81 73 73 64 59 52 48 47 46 42 39 42 40 36 29 28 21 19 24 29
21 26 36 47 39 47 62 56 59 56 48 41 53 54 43 56 53 72 80 82 88 92 94 74 79 66 61 60 61 54 52 48 48 46 42 38 33 28 27 27 27 33 26
19 22 29 33 47 56 58 63 63 61 63 44 52 58 42 55 47 60 78 84 94 82 81 78 61 56 61 63 57 57 54 52 52 51 46 37 30 29 27 24 26 29 26
13 23 40 47 47 51 61 63 68 68 71 59 48 57 39 54 39 60 75 84 84 78 80 74 66 56 60 58 59 57 53 52 51 50 45 41 35 29 30 29 25 25 26
27 41 49 53 52 60 60 71 79 78 76 61 51 52 46 59 71 57 74 83 79 79 77 77 70 57 61 56 62 58 53 49 50 46 41 38 37 33 33 30 27 25 22
43 52 49 54 62 62 69 79 75 60 54 55 56 49 49 54 66 61 62 71 83 87 79 76 70 61 58 58 64 60 56 54 52 48 44 38 38 39 36 30 30 31 29
62 68 54 55 65 74 72 61 65 64 60 56 56 49 51 52 60 46 72 83 81 89 86 75 70 64 62 64 66 66 65 64 60 55 47 38 37 41 35 26 30 33 30
65 45 43 55 72 80 68 60 62 66 59 60 58 54 51 62 70 77 78 84 90 88 91 78 78 71 66 71 76 72 69 68 67 60 54 48 42 43 36 27 29 26 36
50 63 69 73 86 92 71 74 71 65 60 59 60 52 49 54 67 73 81 84 94 89 88 83 86 81 81 79 81 72 65 67 62 59 53 49 50 50 41 32 26 36 35
60 69 75 83 70 68 66 79 68 61 61 59 56 49 50 55 66 70 78 79 83 89 91 90 99 93 90 87 77 68 66 64 59 53 51 48 50 51 46 37 38 37 35
70 83 71 69 78 64 71 81 67 53 54 55 54 44 50 62 61 76 82 88 79 83 83 92 100 102 92 94 81 71 65 62 53 54 51 48 50 49 46 41 49 39 36
84 74 71 69 73 65 66 65 60 53 58 53 53 51 59 75 71 63 77 88 84 93 93 92 100 111 107 100 87 82 78 68 58 55 58 53 54 54 52 57 50 39 34
77 75 73 66 60 56 58 57 46 38 47 46 51 50 72 79 82 73 79 78 80 86 92 108 117 108 108 104 90 76 65 57 58 55 55 52 54 61 64 58 51 40 37
Wind_Direction_850mb
258 262 250 242 261 253 240 241 242 240 249 260 254 231 222 218 218 220 221 226 226 217 212 208 200 205 205 201 202 207 212 196 204 194 186 205 221 234 234 243 228 210 304
241 245 237 251 261 260 248 240 240 237 239 252 259 251 234 222 221 219 226 221 225 222 213 202 205 207 210 209 211 221 208 213 203 193 204 196 205 218 219 215 228 246 254
224 227 238 271 276 269 262 259 250 247 248 259 258 254 250 242 227 221 221 219 226 230 217 201 205 210 212 213 211 209 210 213 200 218 194 193 208 199 197 203 220 240 241
217 233 246 248 249 261 276 279 271 253 252 260 256 248 249 245 234 230 220 230 228 230 220 204 205 208 215 212 210 214 217 211 207 204 211 191 152 172 180 202 218 233 249
209 228 236 242 253 266 274 290 285 265 253 248 256 247 249 249 252 232 227 219 226 223 219 207 208 209 212 209 209 214 218 208 206 208 209 210 222 204 180 177 210 226 228
252 221 242 263 267 270 275 287 312 285 259 243 256 246 248 249 248 243 230 225 214 218 217 211 205 201 204 207 207 208 206 205 203 194 187 186 185 182 167 161 141 191 192
33 33 9 341 356 340 327 287 288 313 266 244 256 247 250 252 256 244 235 213 213 209 212 208 203 201 204 209 210 207 202 206 196 194 185 185 197 188 186 189 168 145 165
23 10 349 12 50 344 328 326 314 276 316 289 259 255 260 258 257 246 235 224 211 209 204 206 202 204 202 205 207 208 211 211 199 194 188 199 213 215 212 225 203 165 174
354 358 333 307 314 324 315 309 291 300 292 284 272 253 257 261 252 244 233 217 204 202 195 208 203 206 206 209 205 209 206 208 203 199 205 210 217 222 214 214 204 181 164
314 329 330 331 327 323 313 282 302 295 298 289 291 261 256 259 250 239 230 197 188 190 206 204 202 202 202 201 205 203 206 200 200 196 200 208 210 213 200 203 196 187 174
271 295 333 331 325 308 304 292 292 291 282 295 288 283 262 258 246 234 224 200 193 190 205 208 205 203 200 199 197 203 201 203 194 190 199 201 201 199 191 198 197 171 185
306 276 277 298 306 299 277 285 290 303 288 285 281 287 267 257 247 226 223 197 186 177 200 208 209 203 201 198 193 197 202 202 195 192 197 197 195 192 188 198 196 176 183
291 294 307 309 304 308 299 282 297 316 288 303 303 302 266 251 243 227 197 191 184 180 197 200 207 209 206 199 194 199 202 199 193 191 192 189 191 194 198 194 177 153 156
323 305 292 301 303 301 298 296 298 306 311 295 300 316 291 251 243 226 195 181 189 187 209 213 212 216 204 196 200 199 200 192 188 186 186 187 194 191 196 193 176 145 134
309 308 300 303 291 291 297 291 293 292 302 322 309 324 286 249 239 228 205 193 196 189 205 202 207 201 198 199 196 194 193 189 182 185 185 188 193 194 193 196 189 176 176
292 300 300 289 296 302 299 292 295 296 303 315 311 315 279 238 239 234 215 193 203 200 202 197 203 203 198 198 197 195 191 187 188 187 185 187 187 185 188 184 180 185 189
279 293 295 294 298 293 293 291 296 299 305 290 304 305 264 250 251 236 210 194 196 195 200 204 202 197 193 191 195 196 193 190 191 189 186 185 187 190 195 191 195 191 194
322 315 301 294 284 290 284 287 293 297 294 277 280 288 273 245 245 229 221 199 194 197 192 188 191 199 194 193 195 194 196 191 190 184 187 188 185 182 192 187 177 168 159
314 310 288 284 289 283 287 292 295 294 277 270 267 283 275 234 242 229 229 212 201 194 196 202 198 197 195 193 196 197 196 189 184 184 183 181 180 173 180 172 163 151 139
316 314 292 288 289 292 303 293 290 293 278 274 265 279 264 247 221 242 227 215 214 210 205 198 201 199 194 194 200 203 198 184 182 181 180 178 178 174 175 161 161 146 130
308 296 296 292 292 298 300 287 286 286 275 271 265 276 268 236 228 223 223 218 210 203 196 202 203 208 213 201 202 205 199 190 183 182 184 183 180 176 173 164 163 150 136
298 296 294 293 293 296 287 287 282 279 273 269 265 271 267 242 224 215 215 216 212 203 202 202 195 194 195 194 199 203 204 194 190 186 186 184 181 178 178 167 158 145 138
297 290 293 301 294 286 284 285 282 275 268 267 271 278 257 239 225 217 206 195 199 193 193 197 190 182 181 189 196 201 198 193 188 186 181 179 175 177 175 166 166 154 152
294 297 299 292 295 290 279 276 281 270 268 265 267 268 244 216 217 201 195 193 191 187 187 180 182 179 189 187 185 186 186 186 181 178 181 176 173 173 172 166 159 159 161
299 299 294 292 294 292 280 278 273 267 258 259 267 264 233 208 207 192 195 196 203 204 208 195 197 190 181 178 180 181 180 177 175 168 170 170 172 171 169 165 162 161 163
302 299 298 295 295 288 280 280 271 255 254 261 265 239 194 197 196 188 186 197 208 207 208 208 200 186 180 177 177 177 177 177 179 176 170 168 169 168 169 169 164 168 176